TimeEST,TemperatureF,Dew PointF,Humidity,Sea Level PressureIn,VisibilityMPH,Wind Direction,Wind SpeedMPH,Gust SpeedMPH,PrecipitationIn,Events,Conditions,WindDirDegrees,DateUTC
12:53 AM,3.0,-2.0,80,30.23,10.0,Calm,Calm,-,N/A,,Clear,0,2013-02-26 05:53:00
1:53 AM,1.9,-2.0,83,30.24,10.0,Calm,Calm,-,N/A,,Clear,0,2013-02-26 06:53:00
2:53 AM,1.0,-4.0,79,30.25,10.0,Calm,Calm,-,N/A,,Clear,0,2013-02-26 07:53:00
3:53 AM,-0.0,-4.0,83,30.27,10.0,Calm,Calm,-,N/A,,Clear,0,2013-02-26 08:53:00
4:53 AM,-0.9,-5.1,83,30.29,10.0,Calm,Calm,-,N/A,,Clear,0,2013-02-26 09:53:00
5:53 AM,-2.0,-8.0,76,30.31,10.0,Calm,Calm,-,N/A,,Clear,0,2013-02-26 10:53:00
6:53 AM,-2.0,-8.0,76,30.34,10.0,Calm,Calm,-,N/A,,Clear,0,2013-02-26 11:53:00
7:53 AM,9.0,3.9,80,30.35,10.0,Calm,Calm,-,N/A,,Clear,0,2013-02-26 12:53:00
8:53 AM,19.0,10.9,71,30.35,10.0,Calm,Calm,-,N/A,,Clear,0,2013-02-26 13:53:00
9:53 AM,27.0,14.0,58,30.35,10.0,Calm,Calm,-,N/A,,Clear,0,2013-02-26 14:53:00
11:53 AM,34.0,9.0,35,30.34,10.0,Calm,Calm,-,N/A,,Clear,0,2013-02-26 16:53:00
12:53 PM,37.0,15.1,41,30.32,10.0,North,6.9,-,N/A,,Clear,360,2013-02-26 17:53:00
1:53 PM,37.9,14.0,38,30.31,10.0,NNE,5.8,-,N/A,,Clear,30,2013-02-26 18:53:00
2:53 PM,37.9,16.0,41,30.31,10.0,North,4.6,-,N/A,,Clear,10,2013-02-26 19:53:00
3:53 PM,37.0,15.1,41,30.30,10.0,North,5.8,-,N/A,,Clear,10,2013-02-26 20:53:00
4:53 PM,34.0,15.1,46,30.32,10.0,Calm,Calm,-,N/A,,Clear,0,2013-02-26 21:53:00
5:53 PM,26.1,17.1,69,30.32,10.0,Calm,Calm,-,N/A,,Clear,0,2013-02-26 22:53:00
6:53 PM,24.1,16.0,71,30.33,10.0,Calm,Calm,-,N/A,,Clear,0,2013-02-26 23:53:00
7:53 PM,19.9,14.0,78,30.34,10.0,Calm,Calm,-,N/A,,Clear,0,2013-02-27 00:53:00
8:53 PM,18.0,12.0,78,30.32,10.0,Calm,Calm,-,N/A,,Clear,0,2013-02-27 01:53:00
9:53 PM,17.1,12.0,81,30.33,10.0,Calm,Calm,-,N/A,,Clear,0,2013-02-27 02:53:00
10:53 PM,12.9,8.1,81,30.32,10.0,Calm,Calm,-,N/A,,Clear,0,2013-02-27 03:53:00
11:53 PM,14.0,9.0,80,30.31,10.0,Calm,Calm,-,N/A,,Clear,0,2013-02-27 04:53:00